Needles, CA

12:25 AM PDT on July 21, 2017 (GMT -0700)
Needles

Weather History for KEED - February, 2012

Change the Weather History Date:

Friday, February 17, 2012

  Actual Average Record
Temperature  
Mean Temperature 61 °F 59 °F  
Max Temperature 71 °F 70 °F 88 °F (2016)
Min Temperature 48 °F 47 °F 27 °F (1910)
Degree Days  
Heating Degree Days 4    
Cooling Degree Days 0    
Growing Degree Days 11 (Base 50)    
Moisture  
Dew Point 19 °F    
Average Humidity 24    
Maximum Humidity 41    
Minimum Humidity 8    
Precipitation  
Precipitation 0.00 in 0.03 in 0.34 in (1998)
Month to date precipitation 0.47  
Year to date precipitation 1.19  
Sea Level Pressure  
Sea Level Pressure 30.07 in    
Wind  
Wind Speed 13 mph (North)    
Max Wind Speed 20 mph    
Max Gust Speed 24 mph    
Visibility 10 miles    
Events      
T = Trace of Precipitation, MM = Missing Value Source: NWS Daily Summary

Daily Weather History Graph

Daily Weather History Graph

Search for Another Location

Airport or City:

Trip Planner

Search our weather history database for the weather conditions in past years. The results will help you decide how hot, cold, wet, or windy it might be!

Date:

Astronomy

Feb. 17, 2012 Rise Set
Actual Time 6:22 AM PST 5:23 PM PST
Civil Twilight 5:56 AM PST 5:48 PM PST
Nautical Twilight 5:27 AM PST 6:18 PM PST
Astronomical Twilight 4:57 AM PST 6:47 PM PST
Moon 3:09 AM PST (2/17) 1:27 PM PST (2/17)
Length of Visible Light 11h 52m
Length of Day
11h 00m
Waning Crescent, 18% of the Moon is Illuminated
Feb 17
Waning Crescent
Feb 21
New
Feb 29
First Quarter
Mar 8
Full
Mar 14
Last Quarter

Hourly Weather History & Observations

Time (PST) Temp. Dew Point Humidity Pressure Visibility Wind Dir Wind Speed Gust Speed Precip Events Conditions
12:56 AM 55.0 °F 28.0 °F 35% 30.08 in 10.0 mi NNE 16.1 mph - N/A   Clear
2:56 AM 54.0 °F 28.0 °F 37% 30.06 in 10.0 mi North 19.6 mph - N/A   Clear
3:56 AM 52.0 °F 27.0 °F 38% 30.06 in 10.0 mi North 13.8 mph - N/A   Clear
4:56 AM 51.1 °F 26.1 °F 38% 30.08 in 10.0 mi NNW 8.1 mph - N/A   Clear
5:56 AM 51.1 °F 27.0 °F 39% 30.10 in 10.0 mi NNW 9.2 mph - N/A   Clear
6:56 AM 51.1 °F 28.0 °F 41% 30.12 in 10.0 mi North 12.7 mph - N/A   Clear
7:56 AM 54.0 °F 25.0 °F 33% 30.13 in 10.0 mi North 13.8 mph - N/A   Clear
8:56 AM 57.0 °F 26.1 °F 30% 30.13 in 10.0 mi North 9.2 mph - N/A   Clear
9:56 AM 61.0 °F 25.0 °F 25% 30.14 in 10.0 mi NNE 10.4 mph - N/A   Clear
11:56 AM 66.9 °F 21.0 °F 17% 30.10 in 10.0 mi NNE 15.0 mph 23.0 mph N/A   Clear
12:56 PM 69.1 °F 19.9 °F 15% 30.06 in 10.0 mi NNE 17.3 mph - N/A   Clear
1:56 PM 69.1 °F 17.1 °F 14% 30.04 in 10.0 mi NNE 13.8 mph 23.0 mph N/A   Clear
2:56 PM 71.1 °F 14.0 °F 11% 30.02 in 10.0 mi NNE 19.6 mph 24.2 mph N/A   Clear
3:56 PM 69.1 °F 5.0 °F 8% 30.01 in 10.0 mi NE 13.8 mph - N/A   Clear
4:56 PM 66.9 °F 10.0 °F 11% 30.01 in 10.0 mi North 8.1 mph - N/A   Clear
5:56 PM 64.0 °F 12.9 °F 14% 30.02 in 10.0 mi North 9.2 mph - N/A   Clear
6:56 PM 62.1 °F 14.0 °F 15% 30.04 in 10.0 mi NNW 10.4 mph - N/A   Clear
7:56 PM 59.0 °F 16.0 °F 19% 30.04 in 10.0 mi NNW 8.1 mph - N/A   Clear
8:56 PM 55.9 °F 14.0 °F 19% 30.05 in 10.0 mi WNW 9.2 mph - N/A   Clear
9:56 PM 51.1 °F 14.0 °F 23% 30.06 in 10.0 mi West 10.4 mph - N/A   Clear
10:56 PM 51.1 °F 14.0 °F 23% 30.05 in 10.0 mi West 8.1 mph - N/A   Clear
11:56 PM 48.0 °F 14.0 °F 26% 30.05 in 10.0 mi Calm Calm - N/A   Clear